"Pseudo-MPEC" for P10N8NN

Created 2019 Apr 22 11:07:07 UT using Find_Orb

Click here for an explanation of pseudo-MPECs

 
 Astrometry: 
     P10N8NN  C2019 04 14TGYfAf(D4Mp/EP:snAstrometryF/Ci)Jv3RimfNZuv:;qZCoHK?F51
     P10N8NN  C2019 04 14WJoredacted;LD=r-:click;68#q[q]/+2_E'0%K%(PDhere_mexF51
     P10N8NN  C2019 04 14d8,%SBCforEnK,jV)VF:5Ks=!W!eBT*Z`explanation/h\,g\UnF51

Station data:
(F51) Pan-STARRS 1, Haleakala  (N20.707235 W156.255910)  US/Hawaii.
   Observers N. Primak, A. Schultz, S. Watters, J. Thiel, T. Goggia. Measurer
   PS1 Science Consortium. 1.8-m Ritchey-Chrétien + CCD.

Orbital elements:  P10N8NN
   Perihelion 2019 May 2.328963 +/- 32.6 TT =  7:53:42 (JD 2458605.828963)
Epoch 2019 Apr 15.0 TT = JDT 2458588.5   Earth MOID: 0.0111   AutoNEOCP
M 345.42547628 +/- 23               (J2000 ecliptic)
n   0.84104998 +/- 0.415            Peri.   47.83091 +/- 90
a   1.11153082 +/- 0.366            Node   174.40761 +/- 70
e   0.0901939 +/- 0.252             Incl.    0.83055 +/- 7
P   1.17/428.03d           H 28.9   G  0.15   U 12.1  SR
q 1.01127746 +/- 0.199    Q 1.21178419 +/- 37.4
From 3 observations 2019 Apr. 14 (35.9 min); mean residual 0".27
Residuals in arcseconds: 
190414 F51  .26-  .05+    190414 F51  .52+  .10-    190414 F51  .26-  .05+    

Ephemerides (geocentric):
Date (UTC) HH   RA              Dec         delta   r     elong  mag " sig PA
---- -- -- --  -------------   -----------  ------ ------ -----  --- ---- ---
2019 04 22 11  17 30 54.114   +15 27 39.95  .01426 1.0125 120.7 21.8 0.0  121
2019 04 22 12  17 31 35.995   +15 27 55.92  .01427 1.0124 120.5 21.8 0.0  121
2019 04 22 13  17 32 17.826   +15 28 11.35  .01428 1.0124 120.4 21.8 0.0  121
2019 04 22 14  17 32 59.606   +15 28 26.24  .01429 1.0124 120.3 21.8 0.0  121
2019 04 22 15  17 33 41.335   +15 28 40.60  .01430 1.0124 120.1 21.8 0.0  121
2019 04 22 16  17 34 23.012   +15 28 54.42  .01430 1.0124 120.0 21.8 0.0  121
2019 04 22 17  17 35 04.637   +15 29 07.70  .01431 1.0124 119.9 21.8 0.0  121
2019 04 22 18  17 35 46.209   +15 29 20.45  .01432 1.0124 119.8 21.8 0.0  120
2019 04 22 19  17 36 27.727   +15 29 32.67  .01433 1.0124 119.6 21.8 0.0  120
2019 04 22 20  17 37 09.191   +15 29 44.37  .01434 1.0123 119.5 21.8 0.0  120
2019 04 22 21  17 37 50.600   +15 29 55.53  .01434 1.0123 119.4 21.8 0.0  120
2019 04 22 22  17 38 31.953   +15 30 06.18  .01435 1.0123 119.3 21.8 0.0  120
2019 04 22 23  17 39 13.251   +15 30 16.30  .01436 1.0123 119.1 21.8 0.0  120
2019 04 23 00  17 39 54.491   +15 30 25.89  .01437 1.0123 119.0 21.8 0.0  120
2019 04 23 01  17 40 35.675   +15 30 34.97  .01438 1.0123 118.9 21.8 0.0  120
2019 04 23 02  17 41 16.801   +15 30 43.54  .01439 1.0123 118.8 21.8 0.0  119
2019 04 23 03  17 41 57.868   +15 30 51.59  .01440 1.0123 118.7 21.8 0.0  119
2019 04 23 04  17 42 38.876   +15 30 59.12  .01441 1.0123 118.5 21.8 0.0  119
2019 04 23 05  17 43 19.825   +15 31 06.15  .01441 1.0122 118.4 21.8 0.0  119
2019 04 23 06  17 44 00.714   +15 31 12.66  .01442 1.0122 118.3 21.9 0.0  119
2019 04 23 07  17 44 41.542   +15 31 18.67  .01443 1.0122 118.2 21.9 0.0  119
2019 04 23 08  17 45 22.309   +15 31 24.18  .01444 1.0122 118.0 21.9 0.0  119
2019 04 23 09  17 46 03.014   +15 31 29.18  .01445 1.0122 117.9 21.9 0.0  119
2019 04 23 10  17 46 43.657   +15 31 33.69  .01446 1.0122 117.8 21.9 0.0  119
2019 04 23 11  17 47 24.238   +15 31 37.70  .01447 1.0122 117.7 21.9 0.0  118
2019 04 23 12  17 48 04.755   +15 31 41.21  .01448 1.0122 117.6 21.9 0.0  118
2019 04 23 13  17 48 45.208   +15 31 44.23  .01449 1.0122 117.4 21.9 0.0  118
2019 04 23 14  17 49 25.598   +15 31 46.76  .01450 1.0122 117.3 21.9 0.0  118
2019 04 23 15  17 50 05.922   +15 31 48.80  .01451 1.0121 117.2 21.9 0.0  118
2019 04 23 16  17 50 46.181   +15 31 50.35  .01452 1.0121 117.1 21.9 0.0  118
2019 04 23 17  17 51 26.374   +15 31 51.42  .01453 1.0121 117.0 21.9 0.0  118
2019 04 23 18  17 52 06.501   +15 31 52.01  .01454 1.0121 116.8 21.9 0.0  118
2019 04 23 19  17 52 46.562   +15 31 52.13  .01456 1.0121 116.7 21.9 0.0  117
2019 04 23 20  17 53 26.555   +15 31 51.76  .01457 1.0121 116.6 21.9 0.0  117
2019 04 23 21  17 54 06.481   +15 31 50.92  .01458 1.0121 116.5 21.9 0.0  117
2019 04 23 22  17 54 46.338   +15 31 49.61  .01459 1.0121 116.4 21.9 0.0  117
2019 04 23 23  17 55 26.127   +15 31 47.84  .01460 1.0121 116.2 21.9 0.0  117
2019 04 24 00  17 56 05.847   +15 31 45.59  .01461 1.0120 116.1 21.9 0.0  117
2019 04 24 01  17 56 45.498   +15 31 42.88  .01462 1.0120 116.0 21.9 0.0  117
2019 04 24 02  17 57 25.078   +15 31 39.71  .01463 1.0120 115.9 22.0 0.0  117
2019 04 24 03  17 58 04.589   +15 31 36.09  .01464 1.0120 115.8 22.0 0.0  117
2019 04 24 04  17 58 44.028   +15 31 32.00  .01466 1.0120 115.7 22.0 0.0  116
2019 04 24 05  17 59 23.397   +15 31 27.46  .01467 1.0120 115.5 22.0 0.0  116
2019 04 24 06  18 00 02.694   +15 31 22.48  .01468 1.0120 115.4 22.0 0.0  116
2019 04 24 07  18 00 41.919   +15 31 17.04  .01469 1.0120 115.3 22.0 0.0  116
2019 04 24 08  18 01 21.072   +15 31 11.16  .01470 1.0120 115.2 22.0 0.0  116
2019 04 24 09  18 02 00.152   +15 31 04.83  .01472 1.0120 115.1 22.0 0.0  116
2019 04 24 10  18 02 39.159   +15 30 58.06  .01473 1.0119 115.0 22.0 0.0  116